Regional Weather Roundup
Issued by NWS

Home | Current Version | Previous Version | Graphics & Text | Print | Product List | Glossary On
Versions: 1 2 3 4 5 6 7 8 9 10 11 12 13 14 15 16 17 18 19 20 21 22 23 24 25 26 27 28 29 30 31 32 33 34 35 36 37 38 39 40 41 42 43 44 45 46 47 48 49 50
000
ASUS45 KBOU 161910
RWRCO

WEATHER ROUNDUP FOR COLORADO
NATIONAL WEATHER SERVICE DENVER/BOULDER CO
1200 PM MST SAT DEC 16 2017

NOTE: "FAIR" INDICATES FEW OR NO CLOUDS BELOW 12000 FEET WITH NO
SIGNIFICANT WEATHER AND/OR OBSTRUCTIONS TO VISIBILITY.

COZ001>005-013-030-031-162000-
...NORTHWEST COLORADO...

CITY           SKY/WX    TMP DP  RH WIND       PRES   REMARKS
CRAIG          FAIR      27  13  55 CALM      29.81F
HAYDEN         FAIR      27  15  61 CALM      29.81F
MEEKER         FAIR      38  12  34 CALM      29.79F
RABBIT EARS PA CLOUDY    30   0  27 CALM      29.83F
STEAMBOAT SPGS FAIR      27  12  52 CALM      29.79F
WALDEN         FAIR      30   9  40 NW8       29.80F WCI  23
$$

COZ006>008-011-162000-
...WEST CENTRAL VALLEYS...

CITY           SKY/WX    TMP DP  RH WIND       PRES   REMARKS
GRAND JUNCTION FAIR      36  10  34 CALM      29.81F
MONTROSE       FAIR      36   9  32 N5        29.81F
EAGLE          FAIR      20  10  65 CALM      29.86F
RIFLE          FAIR      33   9  36 CALM      29.82F
DELTA          FAIR      35   7  31 W5        29.81F WCI  31
NUCLA          FAIR      34  -2  21 CALM      29.86F
$$

COZ017>023-064>068-162000-
...SOUTHWEST COLORADO...

CITY           SKY/WX    TMP DP  RH WIND       PRES   REMARKS
DURANGO        FAIR      40  15  36 CALM      29.82F
CORTEZ         FAIR      43  13  29 CALM      29.81F
PAGOSA SPRINGS FAIR      42   5  22 CALM      29.82F
TELLURIDE      FAIR      36  -5  17 W9        29.84F
WOLF CREEK PAS NOT AVBL
$$

COZ009-010-012-014-032>034-037-058>063-162000-
...CENTRAL COLORADO...

CITY           SKY/WX    TMP DP  RH WIND       PRES   REMARKS
ASPEN          FAIR      32  15  49 NW6       29.76F WCI  26
BUENA VISTA    FAIR      36  14  40 NW3       29.81F
COPPER MTN     NOT AVBL
BERTHOUD PASS  PTSUNNY   21  10  63 SE17G29   29.90F WCI   7
COTTONWOOD PAS FAIR      41   5  22 CALM      29.85F
GUNNISON       FAIR      19   6  57 CALM      29.86F
KREMMLING      FAIR      21  12  68 CALM      29.85F
LEADVILLE      CLOUDY    29   8  41 CALM      29.82F
MONARCH PASS   FAIR      32   3  29 E3        30.00F
SALIDA         FAIR      41   9  27 N3        29.88F
SUNLIGHT       CLOUDY    30  -6  21 SW8       29.87F WCI  23
WILKERSON PASS FAIR      30   3  31 SE6       29.92F WCI  24
$$

COZ069>075-162000-
...SAN LUIS VALLEY/SANGRE DE CRISTO MOUNTAINS...

CITY           SKY/WX    TMP DP  RH WIND       PRES   REMARKS
ALAMOSA        FAIR      34  12  40 NW5       29.82F WCI  30
DEL NORTE      FAIR      30  13  48 CALM      29.83F
LA VETA PASS   FAIR      43  10  26 MISG        N/A
SAGUACHE       FAIR      37   9  30 S3        29.82F
$$

COZ035-036-038>040-162000-
...NORTHERN COLORADO FRONT RANGE...

CITY           SKY/WX    TMP DP  RH WIND       PRES   REMARKS
DENVER INTL AP PTSUNNY   47  13  25 N7        29.82F
DMNS CITY PARK NOT AVBL
AURORA         PTSUNNY   47  10  22 N12       29.83F
FRONT RANGE AP PTSUNNY   48  12  23 N9G20     29.83F
ERIE MUNI ARPT FAIR      46   9  21 NE6       29.88F
BOULDER MUN AP FAIR      46  10  23 NE8       29.83F
CENTENNIAL     PTSUNNY   47  10  22 N10       29.82F
BROOMFIELD     MOSUNNY   46   9  21 N7        29.84F
FORT COLLINS   FAIR      47  15  27 N7        29.84F
LONGMONT       FAIR      51  12  21 N8        29.85F
$$

COZ041-046-047-076>085-087-088-162000-
...PIKES PEAK/PALMER DIVIDE AND SOUTHERN FOOTHILLS...

CITY           SKY/WX    TMP DP  RH WIND       PRES   REMARKS
COLO. SPRINGS  PTSUNNY   53   4  13 NE20      29.78F
A. F. ACADEMY  FAIR      49   2  14 N13       29.79F
SCHRIEVER AFB  FAIR      50   2  14 NE23      29.76F
CHEYENNE MTN   FAIR      46   8  20 N14       29.73F
ELLICOTT         N/A    N/A N/A N/A NE25      29.74F
FALCON         FAIR      48  -1  13 N14G21    29.80F
FORT CARSON    FAIR      55   1  11 NE16G24   29.75F
LIMON          FAIR      50   7  17 N14G24    29.78F
MONUMENT HILL  FAIR      41   5  22 NE12      29.83F
CANON CITY     FAIR      63  12  14 E10G16    29.72F
WALSENBURG     FAIR      57  10  15 N22G29    29.72F
TRINIDAD       FAIR      62  12  14 N6        29.69F
$$

COZ042>045-048>051-090-091-162000-
...NORTHEAST COLORADO...

CITY           SKY/WX    TMP DP  RH WIND       PRES   REMARKS
GREELEY ARPT   NOT AVBL
AKRON          FAIR      48  14  25 E14       29.80F
BURLINGTON     FAIR      54  17  23 NE17G26   29.75F
WRAY           FAIR      48  18  29 NE20      29.80S
YUMA           FAIR      45  18  33 NE16      29.79F
STERLING       FAIR      46  23  39 E13G20    29.82S
HOLYOKE        FAIR      50  27  40 NE18G25   29.82F
FORT MORGAN    FAIR      49  13  24 NE10      29.83S
$$

COZ086-089-092>099-162000-
...SOUTHEAST COLORADO...

CITY           SKY/WX    TMP DP  RH WIND       PRES   REMARKS
PUEBLO         FAIR      60   5  11 NE22      29.71F
LA JUNTA       FAIR      56  16  20 E8        29.69F
LAMAR          FAIR      56  16  20 E6        29.66F
SPRINGFIELD      N/A     57  16  20 NE9       29.67F
$$



USA.gov is the U.S. government's official web portal to all federal, state and local government web resources and services.